Regional Weather Roundup
Issued by NWS New Orleans/Baton Rouge, LA

Home | Current Version | Previous Version | Graphics & Text | Print | Product List | Glossary On
Versions: 1 2 3 4 5 6 7 8 9 10 11 12 13 14 15 16 17 18 19 20 21 22 23 24 25 26 27 28 29 30 31 32 33 34 35 36 37 38 39 40 41 42 43 44 45 46 47 48 49 50
801
ASUS44 KLIX 021005
RWRLIX
NEW ORLEANS REGIONAL WEATHER ROUNDUP
NATIONAL WEATHER SERVICE NEW ORLEANS LA
500 AM CDT TUE SEP 02 2014

NOTE: "FAIR" INDICATES FEW OR NO CLOUDS BELOW 12,000 FEET WITH NO
      SIGNIFICANT WEATHER AND/OR OBSTRUCTIONS TO VISIBILITY.
      SKY/WX - SKY CONDITION AND SIGNIFICANT WEATHER.
      TMP - AIR TEMPERATURE.     DP    - DEWPOINT TEMPERATURE.
      RH  - RELATIVE HUMIDITY.   PRES  - PRESSURE.
      HI  - HEAT INDEX.          WCI   - WIND CHILL INDEX.

*  THESE STATIONS ARE NOT NWS OR FAA STATIONS AND ARE NOT UNDER
   NWS QUALITY CONTROL.

LAZ038-040-048-061>063-065>067-069-021100-
SOUTHEAST LOUISIANA

CITY           SKY/WX    TMP DP  RH WIND       PRES   REMARKS
N.O. AUDUBON     N/A     78  78 100 MISG        N/A
N.O. INTL ARPT MOCLDY    80  75  84 CALM      30.02R
N.O. LAKEFRONT PTCLDY    79  77  94 SE5       30.02S
N.O. DOWNTOWN*   N/A     81  73  78 SE5       30.03R
SLIDELL        MOCLDY    77  75  93 CALM      30.02S
BATON ROUGE    PTCLDY    76  74  93 E3        30.01S
BOOTHVILLE     PTCLDY    82  77  84 SE3       30.03R
BELLE CHASSE   PTCLDY    79  74  84 CALM      30.02R
BOGALUSA*        N/A     76  73  88 CALM      30.04F
GALLIANO*      NOT AVBL
NEW ROADS*       N/A     76  75  99 CALM      30.01R FOG
GONZALES*        N/A     75  75 100 CALM      30.01S
HAMMOND*       MOCLDY    77  73  88 CALM      30.04S
HOUMA*         CLEAR     76  73  90 CALM      30.02R FOG
PORT FOURCHON* MOSUNNY   84  75  74 S6        30.04R

$$

MSZ070-080>082-021100-
SOUTHERN MISSISSIPPI

CITY           SKY/WX    TMP DP  RH WIND       PRES   REMARKS
MCCOMB         MOCLDY    75  74  96 SE3       30.03S FOG
GULFPORT       CLEAR     79  76  90 CALM      30.02S
BILOXI         CLEAR     80  76  86 SW2       30.02F
PASCAGOULA     CLEAR     72  72 100 CALM      30.04R FOG

$$

COASTAL OBSERVATIONS
LAKE AND NEARSHORE STATIONS

STATION/POSITION TIME  TEMP    WIND        PRES    WAVE
                       AIR SEA DIR/SP/G            HT/PER
                 (UTC) (F)     (DEG/KT/KT) (MB)    (FT/S)
PASCAGOULA       1000   83     230/  5/  8 1016.6
WAVELAND YACHT   1000   81     270/  2/  2 1016.1
GRAND ISLE       1000   83 84  190/  3/  7 1017.1
SOUTHWEST PASS   1000   84 90  170/  4/  7 1017.0
NEW CANAL        1000   79 81  170/  2/  3 1016.9
SHELL BEACH      1000   81 81  160/  3/  3 1016.5

OFFSHORE STATIONS

STATION/POSITION TIME  TEMP    WIND        PRES    WAVE
                       AIR SEA DIR/SP/G            HT/PER
                 (UTC) (F)     (DEG/KT/KT) (MB)    (FT/S)

$$




USA.gov is the U.S. government's official web portal to all federal, state and local government web resources and services.